Terminal Aerodrome Forecast
Issued by NWS Brownsville, TX

Home | Current Version | Previous Version | Text Only | Print | Product List | Glossary On
Versions: 1 2 3 4 5 6 7 8 9 10 11 12 13 14 15 16 17 18 19 20
000
FTUS44 KBRO 080415 AAA
TAFMFE
TAF AMD
KMFE 080415Z 0804/0824 14010KT P6SM OVC018
     FM080600 15010KT P6SM SCT020
      TEMPO 0811/0814 BKN020
     FM081400 16020G26KT P6SM SCT025 SCT040=

USA.gov is the U.S. government's official web portal to all federal, state and local government web resources and services.